This demonstration page uses our WeatherBlox Daily Observations layout. Learn more.

Hourly Observations for May 22, 2017

Temp ( °F °C ) Dew Point ( °F °C ) Humidity (%) Winds ( mph kmh ) Pressure ( in mb ) Visibility ( mi km ) Precip ( " mm )
12:15 am 00:15 Cloudy 55 12.8 49 9.5 81 81 WSW 3 6 30.09 1019 10 16.09344 0 0
12:35 am 00:35 Cloudy 56 13.1 48 9.1 77 77 W 3 6 30.09 1019 10 16.09344 0 0
12:55 am 00:55 Cloudy 57 13.9 47 8.4 70 70 W 8 13 30.09 1019 10 16.09344 0 0
1:15 am 01:15 Cloudy with Light Rain 56 13.5 47 8.4 71 71 WNW 7 11 30.09 1019 10 16.09344 0 0
1:35 am 01:35 Cloudy 56 13.3 47 8.6 73 73 W 6 9 30.06 1018 10 16.09344 0 0
1:55 am 01:55 Cloudy 55 12.7 47 8.6 76 76 SSW 6 9 30.09 1019 10 16.09344 0 0
2:15 am 02:15 Cloudy 55 13 47 8.4 74 74 SW 7 11 30.09 1019 10 16.09344 0 0
2:35 am 02:35 Cloudy 55 12.9 47 8.5 75 75 SW 8 13 30.06 1018 10 16.09344 0 0
2:55 am 02:55 Mostly Cloudy 55 12.6 47 8.5 76 76 WSW 7 11 30.06 1018 10 16.09344 0 0
3:15 am 03:15 Mostly Cloudy 55 12.7 47 8.5 76 76 W 7 11 30.06 1018 10 16.09344 0 0
3:35 am 03:35 Cloudy 55 12.5 47 8.5 77 77 W 8 13 30.06 1018 10 16.09344 0 0
3:55 am 03:55 Partly Cloudy 53 11.5 46 8 79 79 W 7 11 30.06 1018 10 16.09344 0 0
4:15 am 04:15 Partly Cloudy 51 10.5 46 8 85 85 W 6 9 30.09 1019 10 16.09344 0 0
4:35 am 04:35 Clear 50 10.1 46 7.7 85 85 W 7 11 30.06 1018 10 16.09344 0 0
4:55 am 04:55 Clear 50 9.9 46 7.8 87 87 W 7 11 30.06 1018 10 16.09344 0 0
5:15 am 05:15 Clear 50 10.1 46 7.7 85 85 W 7 11 30.06 1018 10 16.09344 0 0
5:35 am 05:35 Clear 49 9.3 45 7.3 87 87 W 8 13 30.06 1018 10 16.09344 0 0
5:55 am 05:55 Clear 49 9.5 46 7.5 87 87 W 7 11 30.06 1018 10 16.09344 0 0
6:15 am 06:15 Clear 48 8.9 45 7 88 88 W 7 11 30.06 1018 10 16.09344 0 0
6:35 am 06:35 Sunny 46 8 44 6.4 90 90 W 6 9 30.06 1018 10 16.09344 0 0
6:55 am 06:55 Sunny 46 7.9 44 6.4 90 90 WSW 3 6 30.06 1018 10 16.09344 0 0
7:15 am 07:15 Sunny 48 8.7 45 7.2 90 90 WNW 5 7 30.06 1018 10 16.09344 0 0
7:35 am 07:35 Sunny 50 10 46 8 88 88 WSW 3 6 30.06 1018 10 16.09344 0 0
7:55 am 07:55 Sunny 53 11.4 47 8.2 81 81 NW 8 13 30.03 1017 10 16.09344 0 0
8:15 am 08:15 Sunny 54 12.1 47 8.2 77 77 WNW 8 13 30.03 1017 10 16.09344 0 0
8:35 am 08:35 Sunny 55 12.7 46 8 73 73 WNW 13 20 30.03 1017 10 16.09344 0 0
8:55 am 08:55 Sunny 56 13.2 46 8 71 71 WNW 10 17 30.03 1017 10 16.09344 0 0
9:15 am 09:15 Sunny 56 13.4 47 8.3 71 71 WNW 10 17 30.03 1017 10 16.09344 0 0
9:35 am 09:35 Sunny 56 13.6 47 8.2 70 70 W 10 17 30 1016 10 16.09344 0 0
9:55 am 09:55 Sunny 59 15 47 8.5 65 65 WNW 9 15 30 1016 10 16.09344 0 0
10:15 am 10:15 Sunny 60 15.7 49 9.3 66 66 W 8 13 30 1016 10 16.09344 0 0
10:35 am 10:35 Sunny 63 17.1 49 9.5 61 61 WNW 9 15 29.97 1015 10 16.09344 0 0
10:55 am 10:55 Sunny 64 17.6 49 9.7 60 60 WNW 9 15 29.97 1015 10 16.09344 0 0
11:15 am 11:15 Sunny 65 18.5 50 10 58 58 NW 8 13 29.94 1014 10 16.09344 0 0
11:35 am 11:35 Sunny 67 19.6 51 10.3 55 55 WNW 12 19 29.94 1014 10 16.09344 0 0
11:55 am 11:55 Sunny 68 20 46 8 46 46 NW 13 20 29.91 1013 10 16.09344 0 0
12:15 pm 12:15 Sunny 69 20.5 47 8.5 46 46 W 15 24 29.91 1013 10 16.09344 0 0
12:35 pm 12:35 Sunny 70 21 45 7.1 41 41 W 14 22 29.88 1012 10 16.09344 0 0
12:55 pm 12:55 Sunny 70 21.2 42 5.8 37 37 W 14 22 29.88 1012 10 16.09344 0 0
1:15 pm 13:15 Sunny 71 21.9 42 5.6 35 35 WNW 10 17 29.88 1012 10 16.09344 0 0
1:35 pm 13:35 Sunny 72 22.3 42 5.7 34 34 W 12 19 29.85 1011 10 16.09344 0 0
1:55 pm 13:55 Mostly Cloudy 71 21.4 44 6.9 39 39 NNW 23 37 29.85 1011 10 16.09344 0 0
2:15 pm 14:15 Partly Cloudy 69 20.8 45 7.1 41 41 NW 28 44 29.85 1011 10 16.09344 0 0
2:35 pm 14:35 Mostly Cloudy 67 19.3 45 7.2 46 46 NNW 16 26 29.85 1011 10 16.09344 0 0
2:55 pm 14:55 Partly Cloudy 70 21 44 6.6 39 39 NNW 17 28 29.85 1011 10 16.09344 0 0
3:15 pm 15:15 Sunny 71 21.5 46 7.7 41 41 N 18 30 29.85 1011 10 16.09344 0 0
3:35 pm 15:35 Sunny 70 21.1 47 8.5 45 45 N 17 28 29.85 1011 10 16.09344 0 0
3:55 pm 15:55 Sunny 69 20.5 45 7.3 43 43 N 15 24 29.85 1011 10 16.09344 0 0
4:15 pm 16:15 Partly Cloudy 69 20.7 45 7.2 42 42 NNW 14 22 29.85 1011 10 16.09344 0 0
4:35 pm 16:35 Sunny 69 20.6 47 8.2 45 45 NNW 13 20 29.85 1011 10 16.09344 0 0
4:55 pm 16:55 Sunny 70 20.9 46 7.9 43 43 NNW 9 15 29.83 1010 10 16.09344 0 0
5:15 pm 17:15 Partly Cloudy 68 19.8 45 7.1 44 44 NW 9 15 29.83 1010 10 16.09344 0 0
5:35 pm 17:35 Partly Cloudy 67 19.7 44 6.7 43 43 N 13 20 29.83 1010 10 16.09344 0 0
5:55 pm 17:55 Partly Cloudy 69 20.5 44 6.8 41 41 NNW 12 19 29.83 1010 10 16.09344 0 0
6:15 pm 18:15 Mostly Cloudy 67 19.7 41 4.9 38 38 NW 14 22 29.83 1010 10 16.09344 0 0
6:35 pm 18:35 Partly Cloudy 69 20.4 40 4.6 36 36 NW 16 26 29.83 1010 10 16.09344 0 0
6:55 pm 18:55 Partly Cloudy 66 19.1 41 5 40 40 N 16 26 29.83 1010 10 16.09344 0 0
7:15 pm 19:15 Mostly Cloudy 65 18.5 41 5.2 42 42 N 14 22 29.88 1012 10 16.09344 0 0
7:35 pm 19:35 Cloudy 64 18 44 6.5 47 47 NNW 9 15 29.88 1012 10 16.09344 0 0
7:55 pm 19:55 Cloudy with Light Rain 61 16.1 44 6.9 55 55 NNW 17 28 29.94 1014 10 16.09344 0 0
8:15 pm 20:15 Cloudy with Rain 57 14 48 8.9 72 72 NNW 8 13 29.94 1014 10 16.09344 0 0
8:35 pm 20:35 Cloudy with Light Drizzle 56 13.1 47 8.6 74 74 NNW 14 22 30 1016 10 16.09344 0 0
8:55 pm 20:55 Cloudy 55 12.7 46 8 73 73 NNW 13 20 30 1016 10 16.09344 0 0
9:15 pm 21:15 Cloudy 55 12.6 46 7.8 73 73 N 18 30 30 1016 10 16.09344 0 0
9:35 pm 21:35 Cloudy with Drizzle 53 11.6 47 8.3 80 80 NNW 24 39 30.03 1017 10 16.09344 0 0
9:55 pm 21:55 Cloudy with Light Rain 52 11.2 47 8.5 84 84 N 17 28 30.03 1017 10 16.09344 0.01 0.254
10:15 pm 22:15 Cloudy with Rain 52 11 47 8.5 85 85 NNW 16 26 30.03 1017 10 16.09344 0.01 0.254
10:35 pm 22:35 Cloudy with Rain 51 10.7 48 8.7 88 88 NNW 12 19 30.03 1017 7 11.265408 0.05 1.27
10:55 pm 22:55 Cloudy with Light Rain 51 10.7 48 9.1 90 90 NW 8 13 30.03 1017 10 16.09344 0.07 1.778
11:15 pm 23:15 Cloudy with Rain 51 10.7 49 9.3 91 91 NNW 7 11 30.03 1017 7 11.265408 0.02 0.508
11:35 pm 23:35 Cloudy with Light Rain 51 10.8 48 9 89 89 NNW 5 7 30.03 1017 10 16.09344 0.04 1.016
11:55 pm 23:55 Mostly Cloudy 51 10.4 48 8.7 89 89 NW 6 9 30.03 1017 10 16.09344 0.04 1.016

Powered by AerisWeather